{"data":{"norad_id":64447,"epoch":"2026-05-25T03:11:14.309664Z","epoch_age_seconds":59984,"freshness":"FRESH","line1":"1 64447U 25130K   26145.13280451  .00018250  00000+0  62664-3 0  9990","line2":"2 64447  53.1584  93.6928 0001280  91.4810 268.6338 15.30206982 52407","mean_motion":15.30206982,"eccentricity":0.000128,"inclination_deg":53.1584,"raan_deg":93.6928,"arg_perigee_deg":91.481,"mean_anomaly_deg":268.6338,"bstar":0.00062664,"rev_number":5240,"period_min":94.10491632432,"perigee_km":474.31699610862,"apogee_km":476.07144890158,"semimajor_km":6853.3312225051,"source":"CELESTRAK","updated_at":"2026-05-25T13:38:20.448804Z"}}